Fort Collins, CO

12:53 AM MST on December 14, 2019 (GMT -0700)
Fort Collins-Loveland Municipal

Weather History for KFNL - October, 2019

Change the Weather History Date:

Tuesday, October 8, 2019

  Actual Average Record
Temperature  
Mean Temperature 57 °F -  
Max Temperature 78 °F - 78 °F (2003)
Min Temperature 36 °F - 28 °F (2000)
Degree Days  
Heating Degree Days 8    
Month to date heating degree days 103  
Cooling Degree Days 0    
Month to date cooling degree days 0  
Growing Degree Days 8 (Base 50)    
Moisture  
Dew Point 25 °F    
Average Humidity 39    
Maximum Humidity 70    
Minimum Humidity 8    
Precipitation  
Precipitation 0.00 in - 0.36 in (2017)
Snow  
Snow 0.00 in - - ()
Snow Depth 0.00 in    
Sea Level Pressure  
Sea Level Pressure 29.79 in    
Wind  
Wind Speed 4 mph (ESE)    
Max Wind Speed 10 mph    
Max Gust Speed -    
Visibility 10 miles    
Events      
T = Trace of Precipitation, MM = Missing Value Source: NWS Daily Summary

Daily Weather History Graph

Daily Weather History Graph

Search for Another Location

Airport or City:

Astronomy

Oct. 08, 2019 Rise Set
Actual Time 7:03 AM MDT 6:31 PM MDT
Civil Twilight 6:36 AM MDT 6:58 PM MDT
Nautical Twilight 6:04 AM MDT 7:29 PM MDT
Astronomical Twilight 5:32 AM MDT 8:01 PM MDT
Moon 4:32 PM MDT (10/8) 1:53 AM MDT (10/8)
Length of Visible Light 12h 22m
Length of Day
11h 27m
Waxing Gibbous, 78% of the Moon is Illuminated
Oct 8
Waxing Gibbous
Oct 13
Full
Oct 21
Last Quarter
Oct 27
New
Nov 4
First Quarter

Hourly Weather History & Observations

Time (MDT) Temp. Windchill Dew Point Humidity Pressure Visibility Wind Dir Wind Speed Gust Speed Precip Events Conditions
12:56 AM 46.0 °F 43.9 °F 28.0 °F 50% 29.90 in 10.0 mi North 4.6 mph - N/A   Clear
1:56 AM 39.9 °F 35.8 °F 24.1 °F 53% 29.91 in 10.0 mi SSE 5.8 mph - N/A   Clear
2:56 AM 37.0 °F 34.5 °F 24.1 °F 59% 29.89 in 10.0 mi Variable 3.5 mph - N/A   Clear
3:56 AM 39.9 °F - 30.9 °F 70% 29.87 in 10.0 mi Calm Calm - N/A   Clear
4:56 AM 45.0 °F 42.6 °F 27.0 °F 49% 29.83 in 10.0 mi Variable 4.6 mph - N/A   Clear
5:56 AM 39.0 °F - 27.0 °F 62% 29.85 in 10.0 mi Calm Calm - N/A   Clear
6:56 AM 41.0 °F 39.0 °F 26.1 °F 55% 29.86 in 10.0 mi Variable 3.5 mph - N/A   Clear
7:56 AM 44.1 °F - 34.0 °F 68% 29.86 in 10.0 mi Calm Calm - N/A   Clear
8:56 AM 48.0 °F - 35.1 °F 61% 29.87 in 10.0 mi Calm Calm - N/A   Clear
9:56 AM 55.9 °F - 28.9 °F 36% 29.85 in 10.0 mi North 4.6 mph - N/A   Clear
10:56 AM 60.1 °F - 26.1 °F 27% 29.84 in 10.0 mi NNE 6.9 mph - N/A   Clear
11:56 AM 63.0 °F - 28.0 °F 27% 29.82 in 10.0 mi WSW 3.5 mph - N/A   Clear
12:56 PM 69.1 °F - 19.9 °F 15% 29.77 in 9.0 mi Variable 3.5 mph - N/A   Clear
1:56 PM 70.0 °F - 19.9 °F 15% 29.76 in 10.0 mi Calm Calm - N/A   Clear
2:56 PM 75.9 °F - 10.9 °F 8% 29.72 in 6.0 mi East 8.1 mph - N/A   Haze
3:56 PM 77.0 °F - 12.9 °F 9% 29.70 in 10.0 mi SE 6.9 mph - N/A   Clear
4:56 PM 78.1 °F - 18.0 °F 10% 29.67 in 10.0 mi SSE 10.4 mph - N/A   Clear
5:56 PM 72.0 °F - 19.0 °F 13% 29.71 in 10.0 mi ESE 4.6 mph - N/A   Clear
6:56 PM 64.9 °F - 30.0 °F 27% 29.74 in 10.0 mi SSW 4.6 mph - N/A   Clear
7:56 PM 59.0 °F - 28.9 °F 32% 29.75 in 10.0 mi West 4.6 mph - N/A   Clear
8:56 PM 59.0 °F - 26.1 °F 28% 29.74 in 10.0 mi South 4.6 mph - N/A   Clear
9:56 PM 54.0 °F - 27.0 °F 35% 29.73 in 10.0 mi NNE 5.8 mph - N/A   Clear
10:56 PM 54.0 °F - 26.1 °F 34% 29.71 in 10.0 mi NE 5.8 mph - N/A   Clear
11:56 PM 53.1 °F - 26.1 °F 35% 29.69 in 10.0 mi Calm Calm - N/A   Clear